[[{"header":{"parameterUnit":"m.s-1","parameterCategory":1,"la1":30.2991,"la2":30.254,"lo1":-89.0895,"lo2":-89.0444,"dy":0.0017,"dx":0.0017,"nx":28,"ny":28,"refTime":"2025-07-10T03:00:00:Z","depth":0,"parameterNumber":2,"parameterNumberName":"U-component_of_WINDS"},"data":[0,0,0,0,0,0,0,0,0,0,0,0,0,0,0,0,0,0,0,0,0,0,0,0,0,0,0,0,0,0,0,0,0,0,0,0,0,0,0,0,0,0,0,0,0,0,0,0,0,0,0,0,0,0,0,0,0,0,2.1433,2.1433,0,2.149,2.1491,2.1492,2.149,2.149,2.1489,2.1488,2.1548,2.155,2.1553,0,0,0,0,0,0,0,0,0,0,0,0,0,2.1322,2.1324,2.1432,2.1433,2.1434,2.149,2.1491,2.1492,2.1491,2.149,2.1489,2.1488,2.1547,2.155,2.1553,0,0,0,0,0,0,0,0,0,0,0,0,0,2.1374,2.1325,2.1432,2.144,2.1441,2.149,2.1491,2.1492,2.1491,2.149,2.1488,2.1487,2.1546,2.155,2.1553,2.1598,0,0,2.1564,2.1565,0,0,0,0,0,0,0,0,2.1371,2.1378,2.1438,2.144,2.1441,2.1482,2.1474,2.1528,2.1491,2.1472,2.1488,2.1487,2.1527,2.1532,2.1546,2.1601,2.1604,2.1564,2.1566,2.1568,2.1569,0,0,0,0,0,0,0,2.1367,2.1375,2.1455,2.1439,2.1441,2.1441,2.1447,2.1484,2.1505,2.1474,2.1474,2.148,2.1528,2.1542,2.1547,2.1605,2.1564,2.1567,2.1569,2.1571,2.1702,2.1703,0,0,0,0,0,0,2.1362,2.1372,2.1454,2.1457,2.1402,2.1444,2.1451,2.147,2.1505,2.1509,2.1481,2.148,2.1537,2.1543,2.1549,2.1606,2.1568,2.1571,2.1573,2.1701,2.1702,2.1704,0,0,0,0,0,0,2.136,2.1369,2.1451,2.1415,2.1425,2.1447,2.1469,2.1472,2.1486,2.1511,2.1515,2.1492,2.1536,2.1544,2.1587,2.1608,2.1573,2.1576,2.1699,2.1701,2.1703,2.1718,0,0,0,0,0,0,2.1356,2.1368,2.1385,2.1415,2.1427,2.1487,2.147,2.1474,2.1492,2.1491,2.1522,2.1526,2.1536,2.1581,2.159,2.1612,2.1579,2.1697,2.17,2.1703,2.1716,2.172,2.1724,0,0,0,0,0,2.1352,2.1387,2.1386,2.1396,2.1449,2.1489,2.1495,2.1506,2.1494,2.1512,2.1528,2.1525,2.1604,2.1586,2.1595,2.1619,2.1696,2.1699,2.1702,2.1714,2.1719,2.1724,0,0,0,0,0,0,2.1359,2.1391,2.1391,2.1436,2.1459,2.1488,2.1511,2.1511,2.1539,2.1536,2.1548,2.1555,2.1598,2.1612,2.1592,2.1665,2.1649,2.1654,2.1654,2.1659,2.1664,2.166,2.1581,0,0,0,0,0,2.1366,2.1395,2.1421,2.1459,2.1471,2.1489,2.1506,2.1512,2.1537,2.1547,2.1566,2.1591,2.1621,2.1641,2.167,2.1718,2.1725,2.1739,2.1743,2.1746,2.1751,2.1778,2.1785,2.1714,2.1714,2.1714,0,0,2.138,2.1401,2.1419,2.1461,2.148,2.151,2.1497,2.153,2.1553,2.1552,2.1594,2.1609,2.1637,2.1683,2.1704,2.1696,2.1772,2.175,2.1753,2.1756,2.1782,2.1789,2.1795,2.1716,2.1716,2.1716,0,0,2.1421,2.144,2.1474,2.1493,2.1522,2.1534,2.1542,2.1572,2.1582,2.1623,2.1624,2.1652,2.1703,2.1724,2.1741,2.1792,2.1791,2.1801,2.1824,2.185,2.1856,2.1861,2.188,2.1887,2.1805,2.1806,2.1806,0,2.1435,2.1481,2.1491,2.1524,2.1543,2.1544,2.1579,2.1598,2.1635,2.1648,2.1639,2.1705,2.1724,2.1775,2.1788,2.1801,2.1812,2.1798,2.1854,2.1859,2.1864,2.1883,2.189,2.1807,2.1806,2.1806,2.1806,0,2.1498,2.1529,2.1553,2.159,2.1611,2.1645,2.166,2.1681,2.1685,2.1699,2.1742,2.1765,2.1799,2.1812,2.1816,2.1864,2.1858,2.1852,2.1836,2.1872,2.189,2.1897,2.1808,2.1808,2.1807,2.1807,0,0,2.1545,2.1587,2.1595,2.1612,2.1645,2.167,2.1704,2.1738,2.1756,2.1782,2.1812,2.1856,2.1851,2.187,2.1877,2.19,2.194,2.1891,2.1892,2.19,2.1996,2.2001,2.2009,2.194,2.1941,2.1942,2.1994,0,2.1591,2.1651,2.1662,2.1715,2.1745,2.1747,2.1777,2.1801,2.1815,2.1842,2.1857,2.1889,2.1878,2.1891,2.1914,2.193,2.196,2.1927,2.1968,2.197,2.1962,2.2018,2.2024,2.2072,2.2001,2.2002,2.2003,0,2.1652,2.168,2.1737,2.1766,2.1779,2.1806,2.1839,2.1865,2.1892,2.1901,2.1923,2.1927,2.1964,2.1946,2.1997,2.1974,2.1992,2.2003,2.2005,2.201,2.1989,2.2026,2.2087,2.2095,2.2013,2.2013,2.2012,0,2.1683,2.1734,2.1775,2.1789,2.1825,2.1844,2.1859,2.1885,2.1906,2.1934,2.1947,2.198,2.1997,2.2023,2.2036,2.2021,2.2086,2.2069,2.2095,2.2095,2.2109,2.2108,2.2175,2.2119,2.2119,2.2119,2.2119,0,2.1733,2.1768,2.1789,2.1814,2.1854,2.1866,2.1904,2.192,2.1943,2.1972,2.1975,2.2002,2.2018,2.2047,2.2057,2.2099,2.2107,2.2115,2.2118,2.2115,2.2114,2.2127,2.2125,2.2121,2.212,2.212,2.212,0,2.1774,2.1789,2.1834,2.1864,2.1873,2.19,2.1926,2.1951,2.1965,2.2001,2.2011,2.2032,2.2067,2.2082,2.2125,2.2132,2.218,2.218,2.2171,2.2172,2.2198,2.2195,2.2276,2.2288,2.2223,2.2223,2.2224,0,2.1806,2.1833,2.1866,2.1885,2.1902,2.1933,2.1954,2.1966,2.1988,2.2022,2.2043,2.2078,2.2107,2.2163,2.2182,2.2215,2.2217,2.2243,2.2222,2.2219,2.2218,2.2217,2.222,2.2247,2.2247,2.2248,2.2248,0,2.1861,2.1867,2.1897,2.193,2.1954,2.1981,2.2006,2.2022,2.2039,2.2063,2.2099,2.2122,2.2166,2.2201,2.2236,2.2252,2.2254,2.2254,2.2262,2.2261,2.2255,2.226,2.2182,2.2253,2.2252,2.2252,2.2252,2.2251,2.1899,2.1923,2.1951,2.1984,2.2005,2.2029,2.2054,2.2071,2.2101,2.2138,2.2144,2.2183,2.221,2.2257,2.2275,2.2306,2.23,2.2311,2.2314,2.2317,2.2319,2.2249,2.2312,2.2312,2.2312,2.2312,2.2312,0,2.1955,2.1973,2.2004,2.204,2.2066,2.2065,2.2093,2.2116,2.2149,2.2175,2.2204,2.2245,2.228,2.2302,2.2337,2.2358,2.2359,2.2366,2.2365,2.237,2.2322,2.2312,2.2365,2.2365,2.2365,2.2365,2.2365,2.2365,2.1988,2.203,2.204,2.2092,2.211,2.2148,2.2164,2.2187,2.2208,2.2254,2.2283,2.2297,2.2322,2.2359,2.2391,2.2396,2.241,2.2417,2.2423,2.2378,2.2373,2.2368,2.2358,2.242,2.242,2.2468,2.2469,2.2469]},{"header":{"parameterUnit":"m.s-1","parameterCategory":1,"la1":30.2991,"la2":30.254,"lo1":-89.0895,"lo2":-89.0444,"dy":0.0017,"dx":0.0017,"nx":28,"ny":28,"refTime":"2025-07-10T03:00:00:Z","depth":0,"parameterNumber":3,"parameterNumberName":"V-component_of_WINDS"},"data":[0,0,0,0,0,0,0,0,0,0,0,0,0,0,0,0,0,0,0,0,0,0,0,0,0,0,0,0,0,0,0,0,0,0,0,0,0,0,0,0,0,0,0,0,0,0,0,0,0,0,0,0,0,0,0,0,0,0,0.0635,0.0635,0,0.0643,0.0643,0.0643,0.0666,0.0666,0.0667,0.0667,0.0674,0.0674,0.0674,0,0,0,0,0,0,0,0,0,0,0,0,0,0.0638,0.0638,0.0635,0.0635,0.0635,0.0643,0.0643,0.0643,0.0665,0.0666,0.0667,0.0667,0.0674,0.0674,0.0674,0,0,0,0,0,0,0,0,0,0,0,0,0,0.0641,0.0638,0.0635,0.0648,0.0649,0.0643,0.0643,0.0643,0.0665,0.0666,0.0667,0.0668,0.0674,0.0674,0.0674,0.0656,0,0,0.0672,0.0672,0,0,0,0,0,0,0,0,0.064,0.064,0.0646,0.0647,0.0648,0.0654,0.0647,0.0648,0.0665,0.0659,0.0667,0.0668,0.0667,0.0667,0.0667,0.0657,0.0657,0.0672,0.0672,0.0672,0.0672,0,0,0,0,0,0,0,0.064,0.064,0.0638,0.0646,0.0647,0.0652,0.0653,0.0647,0.0659,0.066,0.0661,0.0662,0.0668,0.0667,0.0667,0.0657,0.0672,0.0672,0.0672,0.0672,0.0631,0.063,0,0,0,0,0,0,0.0639,0.064,0.0638,0.0638,0.0646,0.0651,0.0653,0.0651,0.0659,0.0661,0.0661,0.0663,0.0668,0.0668,0.0668,0.0647,0.0672,0.0672,0.0671,0.0632,0.0631,0.063,0,0,0,0,0,0,0.0639,0.0638,0.0638,0.064,0.064,0.0651,0.0649,0.0651,0.0651,0.066,0.0662,0.0659,0.0668,0.0668,0.0659,0.0647,0.0671,0.0671,0.0633,0.0632,0.063,0.0605,0,0,0,0,0,0,0.0639,0.0638,0.0632,0.0639,0.064,0.0629,0.0648,0.0651,0.065,0.0652,0.0658,0.066,0.0669,0.0659,0.0658,0.0647,0.0671,0.0634,0.0632,0.0631,0.0607,0.0603,0.06,0,0,0,0,0,0.0639,0.0625,0.0632,0.0631,0.0633,0.0628,0.0629,0.0639,0.0649,0.0643,0.0648,0.066,0.0649,0.0658,0.0657,0.0646,0.0635,0.0633,0.0631,0.0609,0.0604,0.06,0,0,0,0,0,0,0.0616,0.0626,0.0634,0.0622,0.0624,0.0632,0.0625,0.0634,0.0633,0.0635,0.0648,0.0649,0.0638,0.0641,0.0651,0.0628,0.0643,0.0641,0.0627,0.0622,0.0619,0.0618,0.067,0,0,0,0,0,0.061,0.0606,0.0615,0.0604,0.0604,0.0614,0.0613,0.062,0.0623,0.0624,0.0629,0.0631,0.0628,0.0625,0.0623,0.0608,0.0609,0.0599,0.0596,0.0593,0.0591,0.0581,0.0577,0.0624,0.0624,0.0624,0,0,0.0597,0.0602,0.0599,0.0599,0.0602,0.0597,0.0615,0.0609,0.0605,0.0623,0.0614,0.0618,0.062,0.0607,0.0602,0.061,0.0578,0.059,0.0588,0.0587,0.0579,0.0574,0.057,0.0623,0.0623,0.0623,0,0,0.0571,0.0574,0.0565,0.0567,0.057,0.0576,0.0574,0.058,0.0583,0.0574,0.0587,0.0582,0.0577,0.0578,0.0578,0.055,0.056,0.0549,0.053,0.052,0.0517,0.0513,0.0502,0.0498,0.0546,0.0546,0.0546,0,0.0554,0.0547,0.0559,0.0552,0.0551,0.0567,0.0556,0.0558,0.056,0.0559,0.0567,0.056,0.0563,0.0549,0.0542,0.0542,0.0539,0.0548,0.0516,0.0513,0.051,0.05,0.0496,0.0545,0.0545,0.0545,0.0545,0,0.0526,0.0521,0.0513,0.0514,0.0513,0.0504,0.0513,0.051,0.0518,0.0523,0.0513,0.0517,0.0515,0.0512,0.052,0.0499,0.0504,0.0514,0.0529,0.0504,0.0494,0.0491,0.0543,0.0543,0.0544,0.0544,0,0,0.0487,0.0493,0.049,0.049,0.0494,0.049,0.0482,0.048,0.0476,0.0477,0.0469,0.0463,0.0473,0.0472,0.048,0.0472,0.0447,0.0483,0.0483,0.0475,0.0424,0.0415,0.0411,0.0454,0.0453,0.0453,0.0423,0,0.0461,0.0447,0.0456,0.044,0.0435,0.0449,0.0441,0.0443,0.0447,0.0442,0.0447,0.0442,0.0455,0.0455,0.0448,0.0452,0.0437,0.0454,0.0446,0.0446,0.0445,0.0406,0.0397,0.0369,0.042,0.0419,0.0419,0,0.0429,0.0428,0.0411,0.0415,0.0413,0.0406,0.0404,0.04,0.0401,0.0404,0.0403,0.0412,0.0403,0.0418,0.0405,0.0417,0.0414,0.0415,0.0414,0.0414,0.043,0.0403,0.0361,0.0356,0.0413,0.0413,0.0414,0,0.0401,0.0395,0.0384,0.0384,0.0388,0.0382,0.0384,0.0386,0.0383,0.0381,0.0379,0.0376,0.0375,0.0372,0.0379,0.039,0.0365,0.0381,0.0367,0.0366,0.0361,0.0361,0.0316,0.036,0.036,0.036,0.036,0,0.0371,0.036,0.0371,0.0364,0.0352,0.0362,0.0349,0.0352,0.0353,0.0347,0.0359,0.0352,0.0363,0.0357,0.0363,0.035,0.035,0.0352,0.0353,0.035,0.035,0.0348,0.035,0.0359,0.0359,0.0359,0.0359,0,0.0337,0.0344,0.0333,0.0337,0.0338,0.0328,0.0332,0.0325,0.033,0.0321,0.032,0.0327,0.032,0.0328,0.0322,0.0326,0.0309,0.0314,0.0308,0.0309,0.0294,0.0295,0.0247,0.024,0.0289,0.0288,0.0288,0,0.0317,0.0309,0.0312,0.0308,0.0309,0.0303,0.03,0.0309,0.0306,0.0306,0.0299,0.0293,0.0289,0.0278,0.0282,0.0278,0.0282,0.0265,0.0281,0.0278,0.0281,0.0281,0.0279,0.0262,0.0261,0.0261,0.026,0,0.028,0.0284,0.0279,0.0276,0.0272,0.027,0.0268,0.0264,0.0274,0.0269,0.0263,0.026,0.0253,0.0247,0.0244,0.0244,0.0253,0.0255,0.0251,0.0248,0.0245,0.0245,0.0298,0.0256,0.0257,0.0257,0.0257,0.0257,0.0252,0.0245,0.0245,0.024,0.0239,0.0237,0.0231,0.0234,0.0229,0.0225,0.023,0.0222,0.0221,0.0217,0.0217,0.021,0.0217,0.0212,0.021,0.0209,0.0206,0.0246,0.0209,0.0209,0.021,0.021,0.021,0,0.0215,0.0216,0.0211,0.0208,0.0203,0.0212,0.021,0.0205,0.0198,0.0197,0.0193,0.0184,0.0178,0.0181,0.0176,0.0169,0.0173,0.0167,0.0168,0.0167,0.0201,0.0204,0.0164,0.0164,0.0164,0.0164,0.0164,0.0164,0.0195,0.0183,0.0186,0.0174,0.0174,0.0166,0.0164,0.0162,0.0161,0.0151,0.0146,0.0148,0.0148,0.0143,0.0137,0.0138,0.0135,0.0128,0.013,0.0161,0.0165,0.017,0.0173,0.0127,0.0127,0.0097,0.0097,0.0097]}]]